{"data":{"norad_id":62252,"epoch":"2026-09-22T21:06:58.037760Z","epoch_age_seconds":104572,"freshness":"FRESH","line1":"1 62252U 24232R   26265.87983840  .00000100  00000+0  13557-3 0  9992","line2":"2 62252  89.0166  12.7267 0015266 100.3191 259.9683 13.51029444106225","mean_motion":13.51029444,"eccentricity":0.0015266,"inclination_deg":89.0166,"raan_deg":12.7267,"arg_perigee_deg":100.3191,"mean_anomaly_deg":259.9683,"bstar":0.00013557,"rev_number":10622,"period_min":106.5853898592,"perigee_km":1057.1053948075,"apogee_km":1079.8413856509,"semimajor_km":7446.6103902292,"source":"CELESTRAK","updated_at":"2026-09-23T09:00:21.337074Z"}}